This is the latest recevied weather packets stored in our database for station/object DB0RV-13. If no packets are shown the sender has not sent any weather packets the latest 10 day(s).
| Time | Temp. | Humidity | Pressure | Rain* | Wind** | Luminosity | Snow |
|---|---|---|---|---|---|---|---|
| 1777350002 | 7.78° C | 54% | 1014.7 hPa | - | - | - | - |
| 1777349701 | 7.78° C | 53% | 1014.7 hPa | - | - | - | - |
| 1777349402 | 7.78° C | 52% | 1014.7 hPa | - | - | - | - |
| 1777349101 | 8.33° C | 52% | 1014.7 hPa | - | - | - | - |
| 1777348802 | 8.33° C | 52% | 1014.8 hPa | - | - | - | - |
| 1777348502 | 8.89° C | 52% | 1015 hPa | - | - | - | - |
| 1777348202 | 8.33° C | 53% | 1014.9 hPa | - | - | - | - |
| 1777347902 | 8.33° C | 53% | 1014.9 hPa | - | - | - | - |
| 1777347602 | 8.33° C | 52% | 1014.9 hPa | - | - | - | - |
| 1777347302 | 8.33° C | 52% | 1014.8 hPa | - | - | - | - |
| 1777347001 | 8.33° C | 52% | 1014.8 hPa | - | - | - | - |
| 1777346702 | 8.89° C | 51% | 1014.9 hPa | - | - | - | - |
| 1777346402 | 8.33° C | 52% | 1014.8 hPa | - | - | - | - |
| 1777346101 | 7.78° C | 55% | 1014.9 hPa | - | - | - | - |
| 1777345802 | 7.22° C | 56% | 1014.9 hPa | - | - | - | - |
| 1777345502 | 7.78° C | 55% | 1015 hPa | - | - | - | - |
| 1777345201 | 8.33° C | 52% | 1015 hPa | - | - | - | - |
| 1777344902 | 8.89° C | 51% | 1015.1 hPa | - | - | - | - |
| 1777344602 | 9.44° C | 50% | 1015.1 hPa | - | - | - | - |
| 1777344301 | 9.44° C | 49% | 1015.1 hPa | - | - | - | - |
| 1777344002 | 9.44° C | 49% | 1015.1 hPa | - | - | - | - |
| 1777343703 | 10° C | 49% | 1015.1 hPa | - | - | - | - |
| 1777343403 | 9.44° C | 49% | 1015.3 hPa | - | - | - | - |
| 1777343102 | 9.44° C | 50% | 1015.3 hPa | - | - | - | - |
| 1777342802 | 8.89° C | 51% | 1015.3 hPa | - | - | - | - |
* Rain since midnight (hover to see other rain measurements)
** Current wind speed in m/s (hover to see current wind gust speed)